This is the latest recevied weather packets stored in our database for station/object DL4MGC-10. If no packets are shown the sender has not sent any weather packets the latest 10 day(s).
| Time | Temp. | Humidity | Pressure | Rain* | Wind** | Luminosity | Snow |
|---|---|---|---|---|---|---|---|
| 1777816459 | 26.11° C | 38% | 1012.8 hPa | - | - | - | - |
| 1777815559 | 26.67° C | 37% | 1012.9 hPa | - | - | - | - |
| 1777814659 | 27.22° C | 36% | 1012.9 hPa | - | - | - | - |
| 1777813759 | 27.22° C | 38% | 1013.1 hPa | - | - | - | - |
| 1777812858 | 26.67° C | 35% | 1013.2 hPa | - | - | - | - |
| 1777811958 | 27.78° C | 33% | 1013.4 hPa | - | - | - | - |
| 1777811058 | 27.22° C | 35% | 1013.5 hPa | - | - | - | - |
| 1777810158 | 27.78° C | 38% | 1013.5 hPa | - | - | - | - |
| 1777809258 | 26.67° C | 39% | 1013.7 hPa | - | - | - | - |
| 1777808358 | 26.11° C | 42% | 1013.8 hPa | - | - | - | - |
| 1777807458 | 26.67° C | 43% | 1014 hPa | - | - | - | - |
| 1777806558 | 26.67° C | 42% | 1014.3 hPa | - | - | - | - |
| 1777805658 | 26.11° C | 45% | 1014.3 hPa | - | - | - | - |
| 1777804758 | 24.44° C | 45% | 1014.4 hPa | - | - | - | - |
| 1777803858 | 24.44° C | 44% | 1014.7 hPa | - | - | - | - |
| 1777802958 | 25° C | 43% | 1014.8 hPa | - | - | - | - |
| 1777802057 | 24.44° C | 44% | 1015 hPa | - | - | - | - |
| 1777801157 | 23.89° C | 46% | 1015.2 hPa | - | - | - | - |
| 1777800257 | 23.33° C | 50% | 1015.4 hPa | - | - | - | - |
| 1777799357 | 23.33° C | 51% | 1015.6 hPa | - | - | - | - |
| 1777798457 | 21.67° C | 52% | 1015.6 hPa | - | - | - | - |
| 1777797557 | 22.22° C | 54% | 1015.6 hPa | - | - | - | - |
| 1777796657 | 20.56° C | 55% | 1015.7 hPa | - | - | - | - |
| 1777795757 | 21.67° C | 55% | 1015.7 hPa | - | - | - | - |
| 1777794857 | 21.11° C | 63% | 1015.8 hPa | - | - | - | - |
* Rain since midnight (hover to see other rain measurements)
** Current wind speed in m/s (hover to see current wind gust speed)